Regional Weather Roundup
Issued by NWS

Home | Current Version | Previous Version | Text Only | Print | Product List | Glossary On
Versions: 1 2 3 4 5 6 7 8 9 10 11 12 13 14 15 16 17 18 19 20 21 22 23 24 25 26 27 28 29 30 31 32 33 34 35 36 37 38 39 40 41 42 43 44 45 46 47 48 49 50
000
ASUS44 KMEG 290710
RWRTN
TENNESSEE HOURLY STATE WEATHER ROUNDUP
NATIONAL WEATHER SERVICE MEMPHIS TN
200 AM CDT MON MAY 29 2017

TNZ002-004-019-021-049-052-054-088>092-290800-
WEST TENNESSEE

CITY           SKY/WX    TMP DP  RH WIND       PRES   REMARKS
MEMPHIS INTL   CLOUDY    73  71  93 CALM      29.96R
NWS MEMPHIS      N/A     68 N/A N/A MISG        N/A
JACKSON        MOCLDY    68  67  96 SW5       29.96S
DYERSBURG        N/A    N/A N/A N/A MISG        N/A
SOMERVILLE     CLOUDY    72  70  94 SW3       29.96R
COVINGTON      CLEAR     68  66  94 SW5       29.96S
UNION CITY     CLEAR     64  64 100 CALM      29.94R
BOLIVAR        MOCLDY    70  68  94 SE3       29.96S
PARIS          CLEAR     66  64  94 SW3       29.94R
HUNTINGDON     CLEAR     66  64  94 CALM      29.94S
LEXINGTON      CLOUDY    66  64  94 MISG      29.96S
SELMER         CLOUDY    68  66  94 SW3       29.97S
SAVANNAH       CLOUDY    68  66  94 CALM      29.96S
$$

TNZ008-025-027-028-033-062-065-066-290800-
NORTH MIDDLE TENNESSEE

CITY           SKY/WX    TMP DP  RH WIND       PRES   REMARKS
NASHVILLE      CLOUDY    68  64  87 W5        29.96R
PORTLAND       CLEAR     66  64  94 VRB5      29.94R
CLARKSVILLE    CLOUDY    63  61  93 SW5       29.94R
SMYRNA         MOCLDY    67  64  90 CALM      29.97R
COOKEVILLE     MOCLDY    61  61 100 CALM      29.95R FOG
GALLATIN       CLOUDY    64  64 100 CALM      29.97R
CROSSVILLE     CLOUDY    62  60  93 CALM      29.99R
$$

TNZ061-075-076-078-094-096-097-290800-
SOUTH MIDDLE TENNESSEE

CITY           SKY/WX    TMP DP  RH WIND       PRES   REMARKS
FAYETTEVILLE   PTCLDY    66  64  94 CALM      29.96F
TULLAHOMA      CLEAR     64  63  94 W5        29.98R
WINCHESTER     CLEAR     68  64  88 CALM        N/A
MCMINNVILLE    PTCLDY    64  64 100 CALM      29.97R
COLUMBIA       CLEAR     66  66 100 SW3       29.94F FOG
SHELBYVILLE    CLEAR     64  64 100 CALM      29.96S
$$

TNZ017-018-042-046-047-290800-
NORTHEAST TENNESSEE

CITY           SKY/WX    TMP DP  RH WIND       PRES   REMARKS
TRI CITIES     CLOUDY    64  62  93 CALM      29.95S
ELIZABETHTON   CLOUDY    64  63  94 CALM      29.95S
$$

TNZ012-013-036-069-073-074-290800-
CENTRAL EAST TENNESSEE

CITY           SKY/WX    TMP DP  RH WIND       PRES   REMARKS
KNOXVILLE      CLOUDY    69  63  81 W5        29.93S
OAK RIDGE      CLOUDY    67  62  84 W3        29.95R
DOWNTOWN KNOXV CLOUDY    66  66 100 CALM      29.94R
GATLINBURG     CLOUDY    64  63  94 E3        29.93S
MORRISTOWN     PTCLDY    63  63 100 CALM      29.94R
JACKSBORO      PTCLDY    63  63 100 CALM      29.97S
$$

TNZ083-085-099-290800-
SOUTHEAST TENNESSEE

CITY           SKY/WX    TMP DP  RH WIND       PRES   REMARKS
CHATTANOOGA    CLEAR     68  64  87 CALM      29.95R
$$

SKY/WX REPORTED AS FAIR MEANS FEW OR NO CLOUDS BELOW
12 THOUSAND FEET.




USA.gov is the U.S. government's official web portal to all federal, state and local government web resources and services.